Location: Koslow
(50.3020°N, 18.5663°E)
Time: 00:28:27
(UTC+00:00)

X-37B - Pass Details

Date: 07 August 2021
Orbit: 381 x 393 km, 45.0° (Epoch: 29 August)

Event Time Altitude Azimuth Distance (km) Brightness Sun altitude
Exits shadow 02:33:16 10° 244° (WSW) 1,402 2.8 -7.5°
Reaches altitude 10° 02:33:17 10° 244° (WSW) 1,397 2.7 -7.5°
Maximum altitude 02:36:06 31° 180° (S) 700 1.6 -7.2°
Drops below altitude 10° 02:38:56 10° 116° (ESE) 1,398 3.8 -6.8°
Sets 02:41:07 0° 106° (ESE) 2,251 5.1 -6.5°
